User: anonymous   Login
Location: Iola
(37.9240°N, 95.4000°W)
Time: 14:35:10
(UTC-05:00)
Language:

Meteor 2-10 Rocket - Orbit

View from above orbital plane
View from above orbital plane
View from above satellite
View from above satellite

Ground track
Ground track

The orbit data is extracted from the following two-line orbital elements,

1 14453U 83109B   18145.90212808 +.00000031 +00000-0 +68540-5 0  9999
2 14453 081.1651 121.5305 0105510 151.6165 209.0819 14.24694960796258
Epoch (UTC): 25 May 2018 21:39:03
Eccentricity: 0.0105510
inclination: 81.1651°
perigee height: 733 km
apogee height: 885 km
right ascension of ascending node: 121.5305°
argument of perigee: 151.6165°
revolutions per day: 14.24694960
mean anomaly at epoch: 209.0819°
orbit number at epoch: 79625

The dashed part of the orbit path shows where the satellite is in the earth's shadow,  

DLR